TKJ3040 LTFJ-LTAI

Flight info

Callsign TKJ3040
Flight time 0h 52m
Altitude 33000
Route ROXUK UN617 ERVAG UT305 TEKDO UT35 BABSA
Aircraft A321/M-SDE3FGHIRWY/LB1

Departure

Time 2026-05-05 23:38
Airport Istanbul Sabiha Gökçen International Airport (LTFJ)

Arrival

Time 2026-05-06 00:31
Airport Antalya International Airport (LTAI)
Time Latitude Longitude Altitude Speed Heading
2026-05-05 22:49 40.90893 29.31891 321 ft 0 kts 244°
2026-05-05 23:21 40.90900 29.31911 321 ft 4 kts 242°
2026-05-05 23:21 40.90916 29.31937 320 ft 4 kts 202°
2026-05-05 23:21 40.90940 29.31939 320 ft 4 kts 157°
2026-05-05 23:21 40.90949 29.31934 321 ft 0 kts 154°
2026-05-05 23:27 40.90946 29.31936 321 ft 1 kts 154°
2026-05-05 23:27 40.90932 29.31945 320 ft 3 kts 154°
2026-05-05 23:27 40.90909 29.31960 321 ft 5 kts 154°
2026-05-05 23:27 40.90875 29.31982 320 ft 6 kts 152°
2026-05-05 23:28 40.90844 29.32027 320 ft 7 kts 120°
2026-05-05 23:28 40.90808 29.32081 320 ft 8 kts 149°
2026-05-05 23:28 40.90749 29.32114 321 ft 10 kts 158°
2026-05-05 23:28 40.90697 29.32102 320 ft 8 kts 227°
2026-05-05 23:29 40.90667 29.32032 320 ft 9 kts 244°
2026-05-05 23:29 40.90637 29.31948 320 ft 11 kts 237°
2026-05-05 23:29 40.90570 29.31946 319 ft 11 kts 159°
2026-05-05 23:29 40.90501 29.31987 321 ft 11 kts 163°
2026-05-05 23:30 40.90442 29.31939 319 ft 11 kts 238°
2026-05-05 23:30 40.90404 29.31841 321 ft 13 kts 246°
2026-05-05 23:30 40.90364 29.31730 321 ft 14 kts 243°
2026-05-05 23:30 40.90319 29.31610 321 ft 15 kts 244°
2026-05-05 23:31 40.90272 29.31483 319 ft 15 kts 244°
2026-05-05 23:31 40.90224 29.31355 320 ft 16 kts 244°
2026-05-05 23:31 40.90173 29.31211 321 ft 18 kts 244°
2026-05-05 23:31 40.90118 29.31062 320 ft 19 kts 243°
2026-05-05 23:32 40.90060 29.30903 320 ft 16 kts 244°
2026-05-05 23:32 40.90010 29.30769 320 ft 17 kts 244°
2026-05-05 23:32 40.89956 29.30625 321 ft 18 kts 244°
2026-05-05 23:32 40.89900 29.30469 320 ft 19 kts 243°
2026-05-05 23:33 40.89838 29.30303 319 ft 21 kts 244°
2026-05-05 23:33 40.89777 29.30134 321 ft 19 kts 244°
2026-05-05 23:33 40.89734 29.30018 320 ft 13 kts 244°
2026-05-05 23:33 40.89692 29.29907 321 ft 14 kts 243°
2026-05-05 23:34 40.89647 29.29783 319 ft 16 kts 244°
2026-05-05 23:34 40.89598 29.29648 321 ft 17 kts 244°
2026-05-05 23:34 40.89545 29.29503 321 ft 18 kts 243°
2026-05-05 23:34 40.89489 29.29350 319 ft 18 kts 244°
2026-05-05 23:35 40.89448 29.29267 320 ft 11 kts 218°
2026-05-05 23:35 40.89372 29.29267 319 ft 12 kts 158°
2026-05-05 23:35 40.89364 29.29271 320 ft 0 kts 156°
2026-05-05 23:36 40.89362 29.29272 320 ft 1 kts 156°
2026-05-05 23:36 40.89350 29.29279 320 ft 2 kts 156°
2026-05-05 23:36 40.89332 29.29292 320 ft 3 kts 149°
2026-05-05 23:37 40.89314 29.29311 321 ft 3 kts 136°
2026-05-05 23:37 40.89299 29.29334 322 ft 4 kts 130°
2026-05-05 23:37 40.89295 29.29388 322 ft 9 kts 73°
2026-05-05 23:37 40.89327 29.29483 322 ft 14 kts 64°
2026-05-05 23:38 40.89418 29.29726 320 ft 56 kts 63°
2026-05-05 23:38 40.89692 29.30471 323 ft 123 kts 64°
2026-05-05 23:38 40.90140 29.31685 560 ft 155 kts 63°
2026-05-05 23:38 40.90605 29.32972 1269 ft 156 kts 64°
2026-05-05 23:39 40.91050 29.34251 1969 ft 150 kts 64°
2026-05-05 23:39 40.91494 29.35506 2473 ft 157 kts 63°
2026-05-05 23:39 40.92012 29.36889 2727 ft 178 kts 62°
2026-05-05 23:39 40.92595 29.38441 2927 ft 199 kts 63°
2026-05-05 23:40 40.92946 29.40288 3089 ft 219 kts 90°
2026-05-05 23:40 40.92386 29.42249 3237 ft 245 kts 130°
2026-05-05 23:40 40.90958 29.43637 3638 ft 264 kts 149°
2026-05-05 23:40 40.89295 29.44716 4346 ft 271 kts 163°
2026-05-05 23:41 40.87455 29.45280 5079 ft 278 kts 168°
2026-05-05 23:41 40.85546 29.45811 5809 ft 284 kts 169°
2026-05-05 23:41 40.83589 29.46344 6511 ft 290 kts 169°
2026-05-05 23:41 40.81569 29.46892 7252 ft 295 kts 169°
2026-05-05 23:42 40.79542 29.47442 7987 ft 300 kts 169°
2026-05-05 23:42 40.77484 29.48001 8698 ft 304 kts 169°
2026-05-05 23:42 40.75424 29.48566 9357 ft 310 kts 169°
2026-05-05 23:42 40.73293 29.49150 10052 ft 314 kts 169°
2026-05-05 23:43 40.71096 29.49751 10398 ft 334 kts 168°
2026-05-05 23:43 40.68744 29.50391 10571 ft 357 kts 168°
2026-05-05 23:43 40.66241 29.51072 10835 ft 374 kts 168°
2026-05-05 23:43 40.63666 29.51775 11424 ft 381 kts 168°
2026-05-05 23:44 40.61056 29.52490 12036 ft 385 kts 168°
2026-05-05 23:44 40.58419 29.53212 12703 ft 389 kts 168°
2026-05-05 23:44 40.55764 29.53934 13366 ft 392 kts 168°
2026-05-05 23:44 40.53074 29.54662 14020 ft 396 kts 168°
2026-05-05 23:45 40.50369 29.55396 14660 ft 399 kts 168°
2026-05-05 23:45 40.47640 29.56135 15281 ft 402 kts 168°
2026-05-05 23:45 40.44888 29.56879 15904 ft 405 kts 168°
2026-05-05 23:45 40.42118 29.57627 16532 ft 408 kts 168°
2026-05-05 23:46 40.39325 29.58379 17128 ft 411 kts 168°
2026-05-05 23:46 40.36520 29.59137 17744 ft 413 kts 168°
2026-05-05 23:46 40.33691 29.59899 18324 ft 416 kts 168°
2026-05-05 23:46 40.30844 29.60668 18892 ft 419 kts 168°
2026-05-05 23:47 40.27977 29.61444 19431 ft 423 kts 168°
2026-05-05 23:47 40.25084 29.62225 19971 ft 426 kts 168°
2026-05-05 23:47 40.22172 29.63007 20505 ft 429 kts 168°
2026-05-05 23:47 40.19236 29.63793 21026 ft 432 kts 168°
2026-05-05 23:48 40.16283 29.64581 21502 ft 436 kts 168°
2026-05-05 23:48 40.13297 29.65376 21963 ft 439 kts 167°
2026-05-05 23:48 40.10293 29.66176 22428 ft 442 kts 167°
2026-05-05 23:48 40.07267 29.66987 22874 ft 445 kts 167°
2026-05-05 23:49 40.04225 29.67804 23270 ft 448 kts 167°
2026-05-05 23:49 40.01165 29.68626 23699 ft 451 kts 167°
2026-05-05 23:49 39.98082 29.69449 24097 ft 454 kts 167°
2026-05-05 23:49 39.94983 29.70274 24482 ft 456 kts 167°
2026-05-05 23:50 39.91866 29.71101 24876 ft 459 kts 167°
2026-05-05 23:50 39.88764 29.72109 25222 ft 460 kts 160°
2026-05-05 23:50 39.85788 29.73671 25571 ft 462 kts 154°
2026-05-05 23:50 39.82838 29.75351 25920 ft 464 kts 154°
2026-05-05 23:51 39.79862 29.77041 26252 ft 467 kts 154°
2026-05-05 23:51 39.76872 29.78734 26561 ft 471 kts 155°
2026-05-05 23:51 39.73861 29.80435 26882 ft 473 kts 155°
2026-05-05 23:51 39.70833 29.82139 27207 ft 476 kts 155°
2026-05-05 23:52 39.67789 29.83847 27522 ft 478 kts 155°
2026-05-05 23:52 39.64719 29.85568 27788 ft 481 kts 155°
2026-05-05 23:52 39.61642 29.87295 28082 ft 484 kts 155°
2026-05-05 23:52 39.58544 29.89034 28372 ft 487 kts 155°
2026-05-05 23:53 39.55420 29.90782 28634 ft 490 kts 155°
2026-05-05 23:53 39.52280 29.92531 28888 ft 493 kts 155°
2026-05-05 23:53 39.49121 29.94298 29163 ft 496 kts 155°
2026-05-05 23:53 39.45951 29.96087 29450 ft 498 kts 155°
2026-05-05 23:54 39.42774 29.97890 29763 ft 499 kts 155°
2026-05-05 23:54 39.39590 29.99698 30128 ft 499 kts 155°
2026-05-05 23:54 39.36409 30.01504 30468 ft 500 kts 156°
2026-05-05 23:54 39.33227 30.03303 30834 ft 500 kts 156°
2026-05-05 23:55 39.30035 30.05100 31142 ft 501 kts 156°
2026-05-05 23:55 39.26841 30.06895 31456 ft 502 kts 156°
2026-05-05 23:55 39.23635 30.08693 31739 ft 503 kts 157°
2026-05-05 23:55 39.20415 30.10497 32014 ft 505 kts 157°
2026-05-05 23:56 39.17194 30.12302 32308 ft 506 kts 157°
2026-05-05 23:56 39.13960 30.14114 32595 ft 507 kts 157°
2026-05-05 23:56 39.10723 30.15914 32880 ft 507 kts 160°
2026-05-05 23:56 39.07358 30.17211 33051 ft 505 kts 173°
2026-05-05 23:57 39.00450 30.18206 33079 ft 496 kts 178°
2026-05-05 23:57 38.93579 30.19065 33082 ft 496 kts 178°
2026-05-05 23:58 38.86718 30.19905 33082 ft 495 kts 179°
2026-05-05 23:58 38.79847 30.20757 33082 ft 496 kts 179°
2026-05-05 23:59 38.72979 30.21625 33084 ft 496 kts 179°
2026-05-05 23:59 38.66107 30.22496 33086 ft 496 kts 179°
2026-05-06 00:00 38.60392 30.23213 33086 ft 496 kts 179°
2026-05-06 00:00 38.53510 30.24076 33088 ft 497 kts 180°
2026-05-06 00:01 38.46634 30.24931 33069 ft 498 kts 180°
2026-05-06 00:01 38.43153 30.25357 32949 ft 503 kts 180°
2026-05-06 00:01 38.39692 30.25782 32704 ft 495 kts 180°
2026-05-06 00:02 38.36302 30.26209 32585 ft 484 kts 180°
2026-05-06 00:02 38.32991 30.26630 32458 ft 473 kts 180°
2026-05-06 00:02 38.29741 30.27040 32182 ft 466 kts 180°
2026-05-06 00:02 38.26519 30.27437 31721 ft 464 kts 181°
2026-05-06 00:03 38.23307 30.27829 31201 ft 463 kts 180°
2026-05-06 00:03 38.20061 30.28220 30197 ft 474 kts 180°
2026-05-06 00:03 38.16741 30.28616 29251 ft 483 kts 180°
2026-05-06 00:03 38.13396 30.29091 28656 ft 486 kts 174°
2026-05-06 00:04 38.10160 30.30337 28159 ft 489 kts 162°
2026-05-06 00:04 38.07006 30.31928 27657 ft 485 kts 162°
2026-05-06 00:04 38.03886 30.33522 27145 ft 481 kts 162°
2026-05-06 00:04 38.00797 30.35109 26639 ft 477 kts 162°
2026-05-06 00:05 37.94707 30.38234 25624 ft 467 kts 162°
2026-05-06 00:05 37.91708 30.39764 25106 ft 463 kts 162°
2026-05-06 00:05 37.88729 30.41279 24596 ft 459 kts 162°
2026-05-06 00:06 37.85780 30.42778 24105 ft 455 kts 162°
2026-05-06 00:06 37.82854 30.44263 23642 ft 451 kts 162°
2026-05-06 00:06 37.79955 30.45732 23169 ft 447 kts 162°
2026-05-06 00:06 37.77117 30.47169 22687 ft 443 kts 162°
2026-05-06 00:07 37.74225 30.48632 22190 ft 440 kts 162°
2026-05-06 00:07 37.71393 30.50065 21738 ft 437 kts 162°
2026-05-06 00:07 37.68616 30.51465 21310 ft 434 kts 162°
2026-05-06 00:07 37.65844 30.52863 21157 ft 423 kts 162°
2026-05-06 00:08 37.63151 30.54226 21029 ft 411 kts 162°
2026-05-06 00:08 37.60494 30.55332 20901 ft 395 kts 172°
2026-05-06 00:08 37.57847 30.55892 20775 ft 377 kts 181°
2026-05-06 00:08 37.55279 30.55954 20644 ft 361 kts 189°
2026-05-06 00:09 37.52835 30.55656 20515 ft 346 kts 193°
2026-05-06 00:09 37.50474 30.55330 20391 ft 336 kts 193°
2026-05-06 00:09 37.48189 30.55019 20263 ft 326 kts 193°
2026-05-06 00:09 37.45974 30.54717 20110 ft 316 kts 193°
2026-05-06 00:10 37.43805 30.54418 19855 ft 312 kts 194°
2026-05-06 00:10 37.41658 30.54116 19523 ft 310 kts 194°
2026-05-06 00:10 37.39526 30.53816 19215 ft 308 kts 194°
2026-05-06 00:10 37.37400 30.53516 18920 ft 306 kts 194°
2026-05-06 00:11 37.35289 30.53218 18619 ft 305 kts 193°
2026-05-06 00:11 37.33183 30.52923 18305 ft 304 kts 193°
2026-05-06 00:11 37.31087 30.52631 17984 ft 302 kts 193°
2026-05-06 00:11 37.29003 30.52341 17707 ft 301 kts 193°
2026-05-06 00:12 37.26930 30.52053 17394 ft 299 kts 193°
2026-05-06 00:12 37.24866 30.51766 17093 ft 298 kts 192°
2026-05-06 00:12 37.22791 30.51476 16685 ft 301 kts 192°
2026-05-06 00:12 37.20677 30.51570 16344 ft 309 kts 169°
2026-05-06 00:13 37.18649 30.52528 16014 ft 313 kts 159°
2026-05-06 00:13 37.16665 30.53627 15737 ft 311 kts 159°
2026-05-06 00:13 37.14693 30.54736 15445 ft 310 kts 159°
2026-05-06 00:13 37.12731 30.55839 15166 ft 308 kts 159°
2026-05-06 00:14 37.10780 30.56934 14892 ft 306 kts 159°
2026-05-06 00:14 37.08839 30.58021 14597 ft 305 kts 159°
2026-05-06 00:14 37.06904 30.59100 14295 ft 304 kts 159°
2026-05-06 00:14 37.04978 30.60174 14018 ft 302 kts 159°
2026-05-06 00:15 37.03075 30.61233 13777 ft 298 kts 159°
2026-05-06 00:15 37.01189 30.62284 13506 ft 296 kts 159°
2026-05-06 00:15 36.99318 30.63326 13238 ft 293 kts 159°
2026-05-06 00:15 36.97460 30.64360 12988 ft 292 kts 159°
2026-05-06 00:16 36.95609 30.65389 12734 ft 291 kts 159°
2026-05-06 00:16 36.93757 30.66404 12486 ft 289 kts 163°
2026-05-06 00:16 36.91849 30.67098 12231 ft 284 kts 174°
2026-05-06 00:16 36.89905 30.67348 11981 ft 278 kts 185°
2026-05-06 00:17 36.87992 30.67226 11713 ft 274 kts 189°
2026-05-06 00:17 36.86092 30.67062 11429 ft 273 kts 188°
2026-05-06 00:17 36.84208 30.66906 11157 ft 270 kts 188°
2026-05-06 00:17 36.82344 30.66755 10873 ft 268 kts 188°
2026-05-06 00:18 36.80494 30.66606 10596 ft 265 kts 187°
2026-05-06 00:18 36.78661 30.66458 10322 ft 263 kts 187°
2026-05-06 00:18 36.76844 30.66306 10043 ft 260 kts 187°
2026-05-06 00:18 36.75050 30.66156 9768 ft 258 kts 187°
2026-05-06 00:19 36.73269 30.66009 9493 ft 255 kts 186°
2026-05-06 00:19 36.71507 30.65864 9222 ft 252 kts 186°
2026-05-06 00:19 36.69764 30.65721 8960 ft 249 kts 185°
2026-05-06 00:19 36.68042 30.65579 8679 ft 247 kts 185°
2026-05-06 00:20 36.66339 30.65444 8380 ft 245 kts 182°
2026-05-06 00:20 36.64678 30.65837 8076 ft 246 kts 155°
2026-05-06 00:20 36.63363 30.67171 7754 ft 247 kts 126°
2026-05-06 00:20 36.62672 30.69112 7434 ft 248 kts 107°
2026-05-06 00:21 36.62183 30.71164 7108 ft 245 kts 107°
2026-05-06 00:21 36.61691 30.73195 6769 ft 244 kts 109°
2026-05-06 00:21 36.60852 30.74991 6447 ft 240 kts 137°
2026-05-06 00:21 36.59473 30.76078 6110 ft 235 kts 165°
2026-05-06 00:22 36.57875 30.76254 5772 ft 231 kts 191°
2026-05-06 00:22 36.56405 30.75519 5432 ft 229 kts 218°
2026-05-06 00:22 36.55364 30.74059 5089 ft 227 kts 243°
2026-05-06 00:22 36.54948 30.72179 4738 ft 227 kts 269°
2026-05-06 00:23 36.55186 30.70243 4361 ft 228 kts 285°
2026-05-06 00:23 36.55863 30.68471 4021 ft 229 kts 309°
2026-05-06 00:23 36.57104 30.67270 3688 ft 228 kts 338°
2026-05-06 00:23 36.58649 30.66966 3545 ft 229 kts
2026-05-06 00:24 36.60101 30.67710 3425 ft 231 kts 37°
2026-05-06 00:24 36.61392 30.68919 3299 ft 232 kts 36°
2026-05-06 00:24 36.62696 30.70110 3173 ft 232 kts 36°
2026-05-06 00:24 36.64054 30.71178 2969 ft 229 kts 22°
2026-05-06 00:25 36.65486 30.71921 2839 ft 218 kts 22°
2026-05-06 00:25 36.66866 30.72660 2795 ft 215 kts 22°
2026-05-06 00:25 36.68238 30.73399 2798 ft 214 kts 22°
2026-05-06 00:25 36.69603 30.74135 2753 ft 214 kts 22°
2026-05-06 00:26 36.70963 30.74866 2633 ft 213 kts 22°
2026-05-06 00:26 36.72317 30.75593 2548 ft 209 kts 22°
2026-05-06 00:26 36.73587 30.76274 2508 ft 187 kts 22°
2026-05-06 00:26 36.74725 30.76882 2493 ft 171 kts 22°
2026-05-06 00:27 36.75824 30.77264 2499 ft 164 kts
2026-05-06 00:27 36.76956 30.77457 2415 ft 161 kts
2026-05-06 00:27 36.78057 30.77621 2230 ft 159 kts
2026-05-06 00:27 36.79115 30.77771 2049 ft 148 kts
2026-05-06 00:28 36.80108 30.77908 1850 ft 144 kts
2026-05-06 00:28 36.81091 30.78044 1662 ft 141 kts
2026-05-06 00:28 36.82062 30.78176 1472 ft 139 kts
2026-05-06 00:28 36.83031 30.78309 1293 ft 137 kts
2026-05-06 00:29 36.83964 30.78436 1106 ft 136 kts
2026-05-06 00:29 36.84902 30.78565 934 ft 135 kts
2026-05-06 00:29 36.85835 30.78692 754 ft 135 kts
2026-05-06 00:29 36.86772 30.78820 575 ft 135 kts
2026-05-06 00:30 36.87709 30.78949 401 ft 135 kts
2026-05-06 00:30 36.88648 30.79078 260 ft 136 kts
2026-05-06 00:30 36.89564 30.79202 201 ft 122 kts
2026-05-06 00:30 36.90125 30.79285 197 ft 55 kts
2026-05-06 00:31 36.90259 30.79304 199 ft 12 kts 11°
2026-05-06 00:31 36.90336 30.79355 191 ft 13 kts 37°
2026-05-06 00:31 36.90403 30.79420 206 ft 9 kts 38°
2026-05-06 00:31 36.90405 30.79423 190 ft 0 kts 38°
2026-05-06 00:33 36.90411 30.79429 190 ft 2 kts 38°
2026-05-06 00:33 36.90423 30.79440 197 ft 3 kts 36°
2026-05-06 00:33 36.90444 30.79459 203 ft 4 kts 36°
2026-05-06 00:34 36.90474 30.79486 206 ft 6 kts 36°
2026-05-06 00:34 36.90512 30.79521 191 ft 8 kts 36°
2026-05-06 00:34 36.90560 30.79564 207 ft 9 kts 36°
2026-05-06 00:34 36.90616 30.79616 202 ft 11 kts 37°
2026-05-06 00:35 36.90681 30.79674 195 ft 13 kts 35°
2026-05-06 00:35 36.90763 30.79729 198 ft 14 kts 15°
2026-05-06 00:35 36.90834 30.79743 195 ft 0 kts
2026-05-06 00:35 36.90840 30.79744 195 ft 2 kts
2026-05-06 00:36 36.90860 30.79748 205 ft 4 kts
2026-05-06 00:36 36.90887 30.79766 204 ft 5 kts 47°
2026-05-06 00:36 36.90908 30.79813 202 ft 7 kts 65°
2026-05-06 00:36 36.90952 30.79845 202 ft 8 kts 11°
2026-05-06 00:37 36.91016 30.79857 191 ft 10 kts
2026-05-06 00:37 36.91093 30.79866 191 ft 12 kts
2026-05-06 00:37 36.91183 30.79878 191 ft 14 kts
2026-05-06 00:37 36.91285 30.79893 198 ft 16 kts
2026-05-06 00:38 36.91387 30.79912 198 ft 12 kts 35°
2026-05-06 00:38 36.91397 30.80006 197 ft 9 kts 94°
2026-05-06 00:38 36.91409 30.80058 206 ft 6 kts 34°
2026-05-06 00:38 36.91443 30.80070 195 ft 3 kts 10°
2026-05-06 00:39 36.91467 30.80073 198 ft 4 kts
2026-05-06 00:39 36.91472 30.80074 191 ft 0 kts